{"data":{"norad_id":59924,"intl_designator":"2024-106C","name":"STARLINK-31958","alt_names":[],"object_type":"PAYLOAD","status":"ACTIVE","operator":null,"country":"US","launch_date":"2024-06-01","launch_site_code":"AFETR","launch_vehicle":null,"mission":null,"orbit_class":"UNKNOWN","rcs_meters":null,"size_class":null,"mass_kg":null,"dimensions":null,"purposes":["comms"],"wikipedia_slug":null,"has_3d_model":false,"image_url":null,"decayed_at":null,"tle_current":{"epoch":"2026-05-24T14:57:38.854368Z","epoch_age_seconds":110892,"freshness":"FRESH","line1":"1 59924U 24106C   26144.62336637  .00000367  00000+0  22886-4 0  9990","line2":"2 59924  43.0027 249.1809 0001691 273.5607  86.5051 15.27575515112302","mean_motion":15.27575515,"eccentricity":0.0001691,"inclination_deg":43.0027,"raan_deg":249.1809,"arg_perigee_deg":273.5607,"mean_anomaly_deg":86.5051,"bstar":2.2886e-5,"rev_number":11230,"period_min":94.267025483189,"perigee_km":481.90229693617,"apogee_km":484.22275461579,"semimajor_km":6861.199525776,"source":"CELESTRAK","updated_at":"2026-05-25T13:38:19.121725Z"}}}